TimeCST,TemperatureF,Dew PointF,Humidity,Sea Level PressureIn,VisibilityMPH,Wind Direction,Wind SpeedMPH,Gust SpeedMPH,PrecipitationIn,Events,Conditions,WindDirDegrees,DateUTC
12:54 AM,28.9,23.0,78,29.85,8.0,SSE,5.8,-,N/A,,Clear,160,2013-12-02 06:54:00
1:54 AM,26.1,21.0,81,29.83,8.0,South,6.9,-,N/A,,Clear,170,2013-12-02 07:54:00
2:54 AM,28.0,23.0,81,29.80,7.0,SE,5.8,-,N/A,,Clear,130,2013-12-02 08:54:00
3:54 AM,25.0,21.0,85,29.76,7.0,SSE,6.9,-,N/A,,Clear,150,2013-12-02 09:54:00
4:54 AM,30.0,24.1,79,29.72,7.0,SSE,8.1,-,N/A,,Clear,150,2013-12-02 10:54:00
5:54 AM,32.0,27.0,82,29.69,8.0,SSE,9.2,-,N/A,,Partly Cloudy,150,2013-12-02 11:54:00
6:54 AM,32.0,27.0,82,29.67,8.0,SSE,6.9,-,N/A,,Clear,150,2013-12-02 12:54:00
7:54 AM,27.0,23.0,85,29.65,5.0,South,5.8,-,N/A,,Partly Cloudy,180,2013-12-02 13:54:00
8:54 AM,34.0,28.0,79,29.66,6.0,SW,3.5,-,N/A,,Haze,230,2013-12-02 14:54:00
9:54 AM,39.9,32.0,73,29.61,7.0,SE,11.5,-,N/A,,Clear,140,2013-12-02 15:54:00
10:54 AM,46.0,33.1,61,29.61,10.0,SSW,9.2,-,N/A,,Clear,200,2013-12-02 16:54:00
11:54 AM,48.9,32.0,52,29.58,10.0,SSW,6.9,-,N/A,,Clear,200,2013-12-02 17:54:00
12:54 PM,53.1,32.0,45,29.57,10.0,West,5.8,-,N/A,,Clear,270,2013-12-02 18:54:00
1:54 PM,55.9,32.0,40,29.55,10.0,Variable,5.8,-,N/A,,Clear,0,2013-12-02 19:54:00
2:54 PM,57.9,32.0,37,29.52,10.0,South,5.8,-,N/A,,Clear,180,2013-12-02 20:54:00
3:54 PM,54.0,32.0,43,29.53,10.0,SE,8.1,-,N/A,,Clear,140,2013-12-02 21:54:00
4:54 PM,46.9,30.0,52,29.52,10.0,ESE,6.9,-,N/A,,Clear,120,2013-12-02 22:54:00
5:54 PM,43.0,28.9,58,29.55,10.0,South,4.6,-,N/A,,Clear,180,2013-12-02 23:54:00
6:54 PM,37.9,25.0,60,29.56,9.0,SSE,3.5,-,N/A,,Clear,150,2013-12-03 00:54:00
7:54 PM,37.9,26.1,62,29.55,10.0,Calm,Calm,-,N/A,,Overcast,0,2013-12-03 01:54:00
8:54 PM,34.0,26.1,73,29.55,10.0,WSW,3.5,-,N/A,,Clear,250,2013-12-03 02:54:00
9:54 PM,30.0,23.0,75,29.54,10.0,North,4.6,-,N/A,,Clear,360,2013-12-03 03:54:00
10:54 PM,28.9,23.0,78,29.54,10.0,WSW,3.5,-,N/A,,Clear,240,2013-12-03 04:54:00
11:54 PM,30.0,23.0,75,29.53,10.0,Calm,Calm,-,N/A,,Clear,0,2013-12-03 05:54:00